Regional Weather Roundup
Issued by NWS

Home | Current Version | Previous Version | Text Only | Print | Product List | Glossary Off
Versions: 1 2 3 4 5 6 7 8 9 10 11 12 13 14 15 16 17 18 19 20 21 22 23 24 25 26 27

000
ASUS45 KBOU 011907
RWRCO

WEATHER ROUNDUP FOR COLORADO
NATIONAL WEATHER SERVICE DENVER/BOULDER CO
100 PM MDT SUN MAY 01 2016

NOTE: "FAIR" INDICATES FEW OR NO CLOUDS BELOW 12000 FEET WITH NO
SIGNIFICANT WEATHER AND/OR OBSTRUCTIONS TO VISIBILITY.

COZ001>005-013-030-031-012000-
...NORTHWEST COLORADO...

CITY           SKY/WX    TMP DP  RH WIND       PRES   REMARKS
CRAIG          FAIR      52  25  35 E17G24    30.09
HAYDEN         FAIR      48  21  34 E21G29    30.10F
MEEKER         FAIR      54  26  34 NW8       30.05F
MOUNT WERNER   NOT AVBL
STEAMBOAT SPGS FAIR      45  24  43 NE17G25   30.12F
WALDEN         FAIR      37  21  52 NE17G23   30.19F
$$

COZ006>008-011-012000-
...WEST CENTRAL VALLEYS...

CITY           SKY/WX    TMP DP  RH WIND       PRES   REMARKS
GRAND JUNCTION CLOUDY    54  29  38 S6        30.03F
MONTROSE       FAIR      54  25  32 E15G25    30.05F
EAGLE          MOSUNNY   54  21  28 NE8G16    30.07F
RIFLE          FAIR      59  24  26 NE10      30.02F
DELTA          NOT AVBL
NUCLA          NOT AVBL
$$

COZ017>023-064>068-012000-
...SOUTHWEST COLORADO...

CITY           SKY/WX    TMP DP  RH WIND       PRES   REMARKS
DURANGO        LGT RAIN  34  33  96 E6        30.10S FOG     WCI  29
CORTEZ         CLOUDY    46  37  71 SE18G26   30.04F
PAGOSA SPRINGS FLURRIES  37  32  81 W3        30.12R
TELLURIDE      FLURRIES  40  28  63 S6        30.09R
WOLF CREEK PAS LGT SNOW  21  21 100 NE12      30.19S WCI   9
$$

COZ009-010-012-014-032>034-037-058>063-012000-
...CENTRAL COLORADO...

CITY           SKY/WX    TMP DP  RH WIND       PRES   REMARKS
ASPEN          PTSUNNY   47  21  35 SE16      30.08F
BUENA VISTA    LGT SNOW  34  26  74 NW7       30.23F WCI  28
COPPER MTN     NOT AVBL
BERTHOUD PASS  CLOUDY    14   3  62 MISG      30.18F
COTTONWOOD PAS FLURRIES  32  21  64 CALM      30.23F
GUNNISON       FAIR      41  21  45 E14       30.15F
KREMMLING      FAIR      45  18  33 E21G26    30.15F
LEADVILLE      MIX PCPN  25  20  81 S21       30.18F WCI  11
MONARCH PASS   CLOUDY    18  14  86 MISG      30.25F
SALIDA         CLOUDY    34  31  88 CALM      30.30F
SUNLIGHT       PTSUNNY   34  30  86 SE5       30.18S WCI  30
WILKERSON PASS FOG      N/A N/A N/A E7        30.24F VSB 1/4
$$

COZ069>075-012000-
...SAN LUIS VALLEY/SANGRE DE CRISTO MOUNTAINS...

CITY           SKY/WX    TMP DP  RH WIND       PRES   REMARKS
ALAMOSA        CLOUDY    38  27  64 MISG      30.15F
LA VETA PASS   SNOW      27  21  80 MISG      30.20S VSB 1/4
SAGUACHE       CLOUDY    43  21  42 E7        30.15F
$$

COZ035-036-038>040-012000-
...NORTHERN COLORADO FRONT RANGE...

CITY           SKY/WX    TMP DP  RH WIND       PRES   REMARKS
DENVER INTL AP CLOUDY    37  29  72 N9        30.30F
DMNS CITY PARK   N/A     36  33  88 N6        30.31F
AURORA         FLURRIES  32  32 100 N7        30.30F WCI  26
FRONT RANGE AP CLOUDY    36  30  80 N8        30.30F
ERIE MUNI ARPT CLOUDY    37  33  84 CALM      30.32F
BOULDER MUN AP CLOUDY    37  32  81 W3        30.31F
CENTENNIAL     FLURRIES  35  31  85 N10       30.29F WCI  27
BROOMFIELD     LGT SNOW  36  32  87 NW3       30.32F
FORT COLLINS   CLOUDY    41  27  56 N5        30.32F
LONGMONT       CLOUDY    41  31  68 N5        30.33F HAZE
$$

COZ041-046-047-076>085-087-088-012000-
...PIKES PEAK/PALMER DIVIDE AND SOUTHERN FOOTHILLS...

CITY           SKY/WX    TMP DP  RH WIND       PRES   REMARKS
COLO. SPRINGS  CLOUDY    38  28  67 N20       30.27F
A. F. ACADEMY  CLOUDY    32  28  86 N17       30.26F WCI  21
SCHRIEVER AFB  NOT AVBL
ELLICOTT       NOT AVBL
FALCON         CLOUDY    37  27  68 N16       30.27F
FORT CARSON    CLOUDY    41  28  60 N22       30.25F
LIMON          CLOUDY    35  31  85 N17       30.26F WCI  25
MONUMENT HILL  CLOUDY    30  28  93 N10       30.28F WCI  21
TRINIDAD       MIX PCPN  35  30  82 N10       30.28S WCI  27
$$

COZ042>045-048>051-090-091-012000-
...NORTHEAST COLORADO...

CITY           SKY/WX    TMP DP  RH WIND       PRES   REMARKS
GREELEY ARPT   CLOUDY    43  27  52 N8        30.31F
AKRON          FAIR      37  31  78 N12       30.27F
BURLINGTON     PTSUNNY   47  31  53 N26G38    30.19F
WRAY           NOT AVBL
STERLING       PTSUNNY   48  28  46 NE17G26   30.27F
HOLYOKE        NOT AVBL
FORT MORGAN    FAIR      49  28  45 N12G22    30.28F
$$

COZ086-089-092>099-012000-
...SOUTHEAST COLORADO...

CITY           SKY/WX    TMP DP  RH WIND       PRES   REMARKS
PUEBLO         CLOUDY    45  30  55 NE15      30.28S
LA JUNTA       CLOUDY    45  33  63 N18G28    30.27R
LAMAR          CLOUDY    46  35  65 N14G22    30.24R
SPRINGFIELD      N/A     39  33  79 N20       30.23F
$$




USA.gov is the U.S. government's official web portal to all federal, state and local government web resources and services.